This is the latest recevied weather packets stored in our database for station/object K0QED. If no packets are shown the sender has not sent any weather packets the latest 10 day(s).
| Time | Temp. | Humidity | Pressure | Rain* | Wind** | Luminosity | Snow |
|---|---|---|---|---|---|---|---|
| 1777819600 | 12.78° C | 34% | 1022 hPa | 0 mm | - | 144 W/m² | - |
| 1777819298 | 12.78° C | 35% | 1022.1 hPa | 0 mm | - | 140 W/m² | - |
| 1777818994 | 12.22° C | 35% | 1022.2 hPa | 0 mm | - | 140 W/m² | - |
| 1777818692 | 12.22° C | 36% | 1022.2 hPa | 0 mm | - | 136 W/m² | - |
| 1777818388 | 11.67° C | 37% | 1022.2 hPa | 0 mm | - | 133 W/m² | - |
| 1777818085 | 11.67° C | 37% | 1022.4 hPa | 0 mm | - | 118 W/m² | - |
| 1777817782 | 11.11° C | 37% | 1022.4 hPa | 0 mm | - | 111 W/m² | - |
| 1777817480 | 11.11° C | 37% | 1022.4 hPa | 0 mm | - | 103 W/m² | - |
| 1777817175 | 10.56° C | 38% | 1022.2 hPa | 0 mm | - | 98 W/m² | - |
| 1777816873 | 10.56° C | 38% | 1022.2 hPa | 0 mm | - | 93 W/m² | - |
| 1777816570 | 10.56° C | 39% | 1022.5 hPa | 0 mm | - | 87 W/m² | - |
| 1777816267 | 10.56° C | 38% | 1022.5 hPa | 0 mm | - | 82 W/m² | - |
| 1777815964 | 10° C | 40% | 1022.4 hPa | 0 mm | - | 77 W/m² | - |
| 1777815661 | 10° C | 40% | 1022.1 hPa | 0 mm | - | 72 W/m² | - |
| 1777815358 | 10° C | 39% | 1022.5 hPa | 0 mm | - | 68 W/m² | - |
| 1777815055 | 10° C | 39% | 1022.1 hPa | 0 mm | - | 63 W/m² | - |
| 1777814751 | 10° C | 39% | 1022 hPa | 0 mm | - | 59 W/m² | - |
| 1777814448 | 9.44° C | 40% | 1022.4 hPa | 0 mm | - | 55 W/m² | - |
| 1777814146 | 9.44° C | 42% | 1022.1 hPa | 0 mm | - | 52 W/m² | - |
| 1777813842 | 9.44° C | 42% | 1022.2 hPa | 0 mm | - | 50 W/m² | - |
| 1777813539 | 9.44° C | 40% | 1022.1 hPa | 0 mm | - | 49 W/m² | - |
| 1777813238 | 8.89° C | 42% | 1022.4 hPa | 0 mm | - | 43 W/m² | - |
| 1777812935 | 8.89° C | 41% | 1022 hPa | 0 mm | - | 39 W/m² | - |
| 1777812632 | 8.89° C | 41% | 1021.7 hPa | 0 mm | - | 37 W/m² | - |
| 1777812328 | 8.89° C | 42% | 1021.9 hPa | 0 mm | - | 35 W/m² | - |
* Rain latest hour (hover to see other rain measurements)
** Current wind speed in m/s (hover to see current wind gust speed)